Time,TemperatureF,DewpointF,PressureIn,WindDirection,WindDirectionDegrees,WindSpeedMPH,WindSpeedGustMPH,Humidity,HourlyPrecipIn,Conditions,Clouds,dailyrainin,SolarRadiationWatts/m^2,SoftwareType,DateUTC
2013-10-31 00:12:00,46.2,41.0,30.18,NE,51,0.0,0.0,81,0.00,,,0.00,0,weatherlink.com 1.10,2013-10-31 07:12:00,
2013-10-31 00:27:00,45.9,40.0,30.18,NE,51,0.0,0.0,81,0.00,,,0.00,0,weatherlink.com 1.10,2013-10-31 07:27:00,
2013-10-31 00:42:00,45.5,40.0,30.18,NE,51,0.0,0.0,82,0.00,,,0.00,0,weatherlink.com 1.10,2013-10-31 07:42:00,
2013-10-31 00:57:00,45.2,40.0,30.18,NE,52,0.0,0.0,82,0.00,,,0.00,0,weatherlink.com 1.10,2013-10-31 07:57:00,
2013-10-31 01:12:00,45.0,40.0,30.18,NE,51,0.0,0.0,82,0.00,,,0.00,0,weatherlink.com 1.10,2013-10-31 08:12:00,
2013-10-31 01:27:00,44.9,40.0,30.18,NE,52,0.0,0.0,82,0.00,,,0.00,0,weatherlink.com 1.10,2013-10-31 08:27:00,
2013-10-31 01:42:00,44.5,40.0,30.19,NE,52,0.0,0.0,83,0.00,,,0.00,0,weatherlink.com 1.10,2013-10-31 08:42:00,
2013-10-31 01:57:00,44.2,39.0,30.19,NE,52,0.0,0.0,83,0.00,,,0.00,0,weatherlink.com 1.10,2013-10-31 08:57:00,
2013-10-31 02:12:00,44.0,39.0,30.19,NE,51,0.0,0.0,83,0.00,,,0.00,0,weatherlink.com 1.10,2013-10-31 09:12:00,
2013-10-31 02:27:00,43.7,39.0,30.19,NE,51,0.0,0.0,83,0.00,,,0.00,0,weatherlink.com 1.10,2013-10-31 09:27:00,
2013-10-31 02:42:00,43.5,39.0,30.19,NE,51,0.0,0.0,84,0.00,,,0.00,0,weatherlink.com 1.10,2013-10-31 09:42:00,
2013-10-31 02:57:00,43.3,39.0,30.19,NE,51,0.0,0.0,84,0.00,,,0.00,0,weatherlink.com 1.10,2013-10-31 09:57:00,
2013-10-31 03:12:00,43.1,39.0,30.19,NE,51,0.0,0.0,85,0.00,,,0.00,0,weatherlink.com 1.10,2013-10-31 10:12:00,
2013-10-31 03:27:00,42.9,39.0,30.19,NE,51,0.0,0.0,85,0.00,,,0.00,0,weatherlink.com 1.10,2013-10-31 10:27:00,
2013-10-31 03:42:00,42.6,38.0,30.19,NE,51,0.0,0.0,85,0.00,,,0.00,0,weatherlink.com 1.10,2013-10-31 10:42:00,
2013-10-31 03:57:00,42.4,39.0,30.19,NE,52,0.0,0.0,86,0.00,,,0.00,0,weatherlink.com 1.10,2013-10-31 10:57:00,
2013-10-31 04:12:00,42.2,38.0,30.19,NE,51,0.0,0.0,86,0.00,,,0.00,0,weatherlink.com 1.10,2013-10-31 11:12:00,
2013-10-31 04:27:00,42.1,39.0,30.19,NE,51,0.0,0.0,87,0.00,,,0.00,0,weatherlink.com 1.10,2013-10-31 11:27:00,
2013-10-31 04:42:00,42.1,38.0,30.19,NE,51,0.0,0.0,86,0.00,,,0.00,0,weatherlink.com 1.10,2013-10-31 11:42:00,
2013-10-31 04:57:00,42.0,38.0,30.19,NE,51,0.0,0.0,86,0.00,,,0.00,0,weatherlink.com 1.10,2013-10-31 11:57:00,
2013-10-31 05:12:00,41.8,38.0,30.19,NE,51,0.0,0.0,87,0.00,,,0.00,0,weatherlink.com 1.10,2013-10-31 12:12:00,
2013-10-31 05:27:00,41.6,38.0,30.19,NE,51,0.0,0.0,87,0.00,,,0.00,0,weatherlink.com 1.10,2013-10-31 12:27:00,
2013-10-31 05:42:00,41.5,38.0,30.20,NE,51,0.0,0.0,87,0.00,,,0.00,0,weatherlink.com 1.10,2013-10-31 12:42:00,
2013-10-31 05:57:00,41.4,38.0,30.20,NE,51,0.0,0.0,87,0.00,,,0.00,0,weatherlink.com 1.10,2013-10-31 12:57:00,
2013-10-31 06:12:00,41.3,38.0,30.21,NE,51,0.0,0.0,87,0.00,,,0.00,0,weatherlink.com 1.10,2013-10-31 13:12:00,
2013-10-31 06:27:00,41.2,38.0,30.21,NE,51,0.0,0.0,88,0.00,,,0.00,0,weatherlink.com 1.10,2013-10-31 13:27:00,
2013-10-31 06:42:00,41.4,38.0,30.21,NE,51,0.0,1.0,89,0.00,,,0.00,0,weatherlink.com 1.10,2013-10-31 13:42:00,
2013-10-31 06:57:00,41.4,38.0,30.21,NE,51,0.0,0.0,89,0.00,,,0.00,0,weatherlink.com 1.10,2013-10-31 13:57:00,
2013-10-31 07:13:00,41.4,38.0,30.21,NE,51,0.0,0.0,89,0.00,,,0.00,0,weatherlink.com 1.10,2013-10-31 14:13:00,
2013-10-31 07:28:00,41.3,38.0,30.21,NE,51,0.0,0.0,88,0.00,,,0.00,0,weatherlink.com 1.10,2013-10-31 14:28:00,
2013-10-31 07:43:00,41.1,38.0,30.21,NE,51,0.0,1.0,89,0.00,,,0.00,7,weatherlink.com 1.10,2013-10-31 14:43:00,
2013-10-31 07:58:00,41.1,38.0,30.22,NE,51,0.0,0.0,89,0.00,,,0.00,25,weatherlink.com 1.10,2013-10-31 14:58:00,
2013-10-31 08:13:00,41.4,39.0,30.23,NE,51,0.0,0.0,90,0.00,,,0.00,62,weatherlink.com 1.10,2013-10-31 15:13:00,
2013-10-31 08:28:00,43.6,40.0,30.23,NE,52,0.0,0.0,88,0.00,,,0.00,104,weatherlink.com 1.10,2013-10-31 15:28:00,
2013-10-31 08:43:00,46.7,42.0,30.23,NE,51,0.0,2.0,82,0.00,,,0.00,155,weatherlink.com 1.10,2013-10-31 15:43:00,
2013-10-31 08:58:00,49.7,42.0,30.24,NE,51,0.0,0.0,75,0.00,,,0.00,206,weatherlink.com 1.10,2013-10-31 15:58:00,
2013-10-31 09:13:00,51.5,42.0,30.23,NE,51,0.0,1.0,71,0.00,,,0.00,255,weatherlink.com 1.10,2013-10-31 16:13:00,
2013-10-31 09:28:00,52.9,43.0,30.24,NE,51,0.0,1.0,68,0.00,,,0.00,301,weatherlink.com 1.10,2013-10-31 16:28:00,
2013-10-31 09:43:00,54.0,42.0,30.23,NE,51,0.0,1.0,65,0.00,,,0.00,339,weatherlink.com 1.10,2013-10-31 16:43:00,
2013-10-31 09:58:00,55.0,43.0,30.23,NE,51,0.0,1.0,64,0.00,,,0.00,378,weatherlink.com 1.10,2013-10-31 16:58:00,
2013-10-31 10:13:00,57.2,44.0,30.23,NE,51,0.0,2.0,61,0.00,,,0.00,417,weatherlink.com 1.10,2013-10-31 17:13:00,
2013-10-31 10:28:00,57.6,44.0,30.23,NE,51,0.0,3.0,61,0.00,,,0.00,448,weatherlink.com 1.10,2013-10-31 17:28:00,
2013-10-31 10:43:00,57.6,44.0,30.23,West,277,1.0,4.0,60,0.00,,,0.00,482,weatherlink.com 1.10,2013-10-31 17:43:00,
2013-10-31 10:58:00,58.6,45.0,30.22,West,277,0.0,1.0,60,0.00,,,0.00,512,weatherlink.com 1.10,2013-10-31 17:58:00,
2013-10-31 11:13:00,60.6,45.0,30.22,West,279,0.0,2.0,57,0.00,,,0.00,536,weatherlink.com 1.10,2013-10-31 18:13:00,
2013-10-31 11:28:00,62.3,45.0,30.22,West,277,1.0,3.0,54,0.00,,,0.00,559,weatherlink.com 1.10,2013-10-31 18:28:00,
2013-10-31 11:43:00,62.9,45.0,30.21,West,277,0.0,2.0,53,0.00,,,0.00,577,weatherlink.com 1.10,2013-10-31 18:43:00,
2013-10-31 11:59:00,64.7,45.0,30.21,West,277,0.0,3.0,50,0.00,,,0.00,591,weatherlink.com 1.10,2013-10-31 18:59:00,
2013-10-31 12:14:00,66.3,45.0,30.20,West,275,1.0,4.0,46,0.00,,,0.00,603,weatherlink.com 1.10,2013-10-31 19:14:00,
2013-10-31 12:29:00,68.3,44.0,30.20,South,184,3.0,5.0,42,0.00,,,0.00,601,weatherlink.com 1.10,2013-10-31 19:29:00,
2013-10-31 12:44:00,69.4,44.0,30.19,SW,223,2.0,5.0,40,0.00,,,0.00,605,weatherlink.com 1.10,2013-10-31 19:44:00,
2013-10-31 12:59:00,68.6,44.0,30.18,WSW,249,0.0,6.0,41,0.00,,,0.00,601,weatherlink.com 1.10,2013-10-31 19:59:00,
2013-10-31 13:14:00,70.3,44.0,30.18,ESE,112,0.0,5.0,39,0.00,,,0.00,598,weatherlink.com 1.10,2013-10-31 20:14:00,
2013-10-31 13:29:00,71.6,45.0,30.17,NE,47,0.0,3.0,39,0.00,,,0.00,589,weatherlink.com 1.10,2013-10-31 20:29:00,
2013-10-31 13:59:00,71.9,45.0,30.16,SW,223,0.0,5.0,38,0.00,,,0.00,555,weatherlink.com 1.10,2013-10-31 20:59:00,
2013-10-31 14:14:00,71.1,43.0,30.15,WSW,249,4.0,6.0,37,0.00,,,0.00,536,weatherlink.com 1.10,2013-10-31 21:14:00,
2013-10-31 14:29:00,70.8,44.0,30.15,SSW,200,0.0,7.0,38,0.00,,,0.00,519,weatherlink.com 1.10,2013-10-31 21:29:00,
2013-10-31 14:44:00,71.9,44.0,30.14,SW,231,0.0,5.0,37,0.00,,,0.00,490,weatherlink.com 1.10,2013-10-31 21:44:00,
2013-10-31 14:59:00,72.5,45.0,30.14,West,261,0.0,3.0,37,0.00,,,0.00,459,weatherlink.com 1.10,2013-10-31 21:59:00,
2013-10-31 15:14:00,73.4,44.0,30.13,West,261,1.0,5.0,35,0.00,,,0.00,431,weatherlink.com 1.10,2013-10-31 22:14:00,
2013-10-31 15:29:00,73.9,44.0,30.13,West,276,0.0,4.0,34,0.00,,,0.00,399,weatherlink.com 1.10,2013-10-31 22:29:00,
2013-10-31 15:44:00,74.3,43.0,30.13,East,92,2.0,9.0,32,0.00,,,0.00,364,weatherlink.com 1.10,2013-10-31 22:44:00,
2013-10-31 15:59:00,73.7,44.0,30.12,East,88,1.0,7.0,34,0.00,,,0.00,323,weatherlink.com 1.10,2013-10-31 22:59:00,
2013-10-31 16:14:00,73.1,42.0,30.12,East,98,0.0,6.0,33,0.00,,,0.00,285,weatherlink.com 1.10,2013-10-31 23:14:00,
2013-10-31 16:29:00,72.0,42.0,30.12,East,79,1.0,5.0,34,0.00,,,0.00,243,weatherlink.com 1.10,2013-10-31 23:29:00,
2013-10-31 16:44:00,71.5,42.0,30.12,East,84,1.0,3.0,35,0.00,,,0.00,200,weatherlink.com 1.10,2013-10-31 23:44:00,
2013-10-31 16:59:00,71.2,41.0,30.11,East,82,1.0,6.0,34,0.00,,,0.00,158,weatherlink.com 1.10,2013-10-31 23:59:00,
2013-10-31 17:14:00,71.0,41.0,30.11,East,92,0.0,6.0,34,0.00,,,0.00,107,weatherlink.com 1.10,2013-11-01 00:14:00,
2013-10-31 17:29:00,70.4,41.0,30.11,NE,55,3.0,4.0,34,0.00,,,0.00,26,weatherlink.com 1.10,2013-11-01 00:29:00,
2013-10-31 17:44:00,69.5,41.0,30.11,East,85,0.0,2.0,36,0.00,,,0.00,16,weatherlink.com 1.10,2013-11-01 00:44:00,
2013-10-31 17:59:00,68.5,41.0,30.11,East,85,0.0,3.0,37,0.00,,,0.00,7,weatherlink.com 1.10,2013-11-01 00:59:00,
2013-10-31 18:14:00,67.5,42.0,30.12,East,85,1.0,3.0,39,0.00,,,0.00,0,weatherlink.com 1.10,2013-11-01 01:14:00,
2013-10-31 18:29:00,66.6,43.0,30.12,East,86,0.0,2.0,42,0.00,,,0.00,0,weatherlink.com 1.10,2013-11-01 01:29:00,
2013-10-31 18:44:00,65.0,42.0,30.12,East,86,0.0,0.0,44,0.00,,,0.00,0,weatherlink.com 1.10,2013-11-01 01:44:00,
2013-10-31 18:59:00,63.4,43.0,30.13,East,85,0.0,0.0,48,0.00,,,0.00,0,weatherlink.com 1.10,2013-11-01 01:59:00,
2013-10-31 19:14:00,62.0,43.0,30.13,East,86,1.0,1.0,50,0.00,,,0.00,0,weatherlink.com 1.10,2013-11-01 02:14:00,
2013-10-31 19:29:00,60.9,43.0,30.13,East,86,0.0,0.0,52,0.00,,,0.00,0,weatherlink.com 1.10,2013-11-01 02:29:00,
2013-10-31 19:44:00,59.8,43.0,30.13,East,86,0.0,0.0,54,0.00,,,0.00,0,weatherlink.com 1.10,2013-11-01 02:44:00,
2013-10-31 19:59:00,59.1,42.0,30.14,East,85,0.0,1.0,54,0.00,,,0.00,0,weatherlink.com 1.10,2013-11-01 02:59:00,
2013-10-31 20:14:00,58.0,42.0,30.14,East,85,0.0,2.0,55,0.00,,,0.00,0,weatherlink.com 1.10,2013-11-01 03:14:00,
2013-10-31 20:29:00,57.2,41.0,30.14,East,85,0.0,0.0,55,0.00,,,0.00,0,weatherlink.com 1.10,2013-11-01 03:29:00,
2013-10-31 20:44:00,56.2,41.0,30.14,East,85,0.0,0.0,58,0.00,,,0.00,0,weatherlink.com 1.10,2013-11-01 03:44:00,
2013-10-31 20:59:00,55.3,41.0,30.14,East,85,0.0,0.0,60,0.00,,,0.00,0,weatherlink.com 1.10,2013-11-01 03:59:00,
2013-10-31 21:14:00,54.6,41.0,30.14,East,86,0.0,1.0,60,0.00,,,0.00,0,weatherlink.com 1.10,2013-11-01 04:14:00,
2013-10-31 21:29:00,54.2,40.0,30.14,East,84,0.0,0.0,59,0.00,,,0.00,0,weatherlink.com 1.10,2013-11-01 04:29:00,
2013-10-31 21:44:00,53.7,40.0,30.15,East,84,0.0,0.0,60,0.00,,,0.00,0,weatherlink.com 1.10,2013-11-01 04:44:00,
2013-10-31 21:59:00,53.1,40.0,30.15,East,84,0.0,0.0,61,0.00,,,0.00,0,weatherlink.com 1.10,2013-11-01 04:59:00,
2013-10-31 22:15:00,52.5,39.0,30.16,East,84,0.0,0.0,61,0.00,,,0.00,0,weatherlink.com 1.10,2013-11-01 05:15:00,
2013-10-31 22:30:00,52.0,40.0,30.16,East,85,0.0,0.0,64,0.00,,,0.00,0,weatherlink.com 1.10,2013-11-01 05:30:00,
2013-10-31 22:45:00,51.5,40.0,30.15,East,84,0.0,0.0,64,0.00,,,0.00,0,weatherlink.com 1.10,2013-11-01 05:45:00,
2013-10-31 23:00:00,51.2,40.0,30.16,East,84,0.0,0.0,65,0.00,,,0.00,0,weatherlink.com 1.10,2013-11-01 06:00:00,
2013-10-31 23:15:00,50.7,40.0,30.16,East,85,0.0,0.0,67,0.00,,,0.00,0,weatherlink.com 1.10,2013-11-01 06:15:00,
2013-10-31 23:30:00,50.2,40.0,30.16,East,85,0.0,0.0,67,0.00,,,0.00,0,weatherlink.com 1.10,2013-11-01 06:30:00,
2013-10-31 23:45:00,49.8,40.0,30.16,East,85,0.0,0.0,69,0.00,,,0.00,0,weatherlink.com 1.10,2013-11-01 06:45:00,